Theta_e
295 296 296 297 298 297 299 301 300 298 300 308 310 314 316 317 315 318 319 311 310 313 313 314 315 316 316 317 318 319 321 322 322 323 324 325 325 326
292 292 292 293 294 295 296 295 294 293 291 296 297 300 303 305 307 312 316 305 308 308 310 311 312 313 314 315 316 317 318 319 321 321 322 323 324 325
290 290 290 291 291 291 290 291 292 292 288 289 292 294 295 297 299 302 306 312 314 307 307 309 310 310 311 312 313 314 315 316 318 319 320 321 322 323
288 289 288 289 287 287 288 288 287 289 287 285 288 289 290 293 294 296 299 301 305 307 308 309 309 309 309 309 309 310 310 311 312 314 316 318 320 322
286 285 285 285 284 284 284 285 286 286 285 284 284 287 289 290 290 292 293 295 297 299 302 303 305 306 308 308 307 307 305 306 307 308 310 312 315 318
285 284 283 283 281 282 282 282 282 281 281 281 281 283 284 287 288 287 287 290 291 293 295 296 300 302 303 305 304 303 302 303 305 306 306 307 310 313
282 282 283 282 283 282 281 280 280 279 279 279 279 279 280 281 281 285 284 286 288 289 288 290 293 292 295 301 300 299 301 302 303 303 304 305 306 308
279 279 280 280 280 280 281 282 281 279 279 278 279 279 280 280 282 282 282 282 280 286 284 285 288 288 290 294 300 301 302 302 302 302 302 303 304 305
278 277 277 278 278 278 280 280 280 281 281 280 277 277 277 279 280 280 282 282 282 285 285 284 287 287 290 293 297 300 301 301 301 301 301 302 303 303
277 277 276 277 277 278 277 276 276 276 278 278 277 277 278 280 280 281 282 284 285 286 287 282 286 286 289 292 296 299 299 300 300 300 301 301 302 302
276 276 276 275 277 279 276 274 273 275 278 278 278 278 279 280 279 276 274 274 274 277 283 284 285 286 287 289 292 296 298 299 299 299 300 300 301 300
274 274 276 275 277 277 274 272 271 273 272 271 272 273 275 274 276 274 273 270 271 271 279 279 282 284 282 288 289 290 291 294 296 298 299 300 300 299
271 272 273 275 275 276 275 271 272 273 269 268 268 269 270 271 271 272 273 272 270 270 275 276 275 277 282 284 287 289 289 290 291 294 298 299 299 299
270 271 271 273 273 273 271 273 273 270 266 264 264 265 266 267 268 270 271 272 273 272 273 275 274 276 279 282 284 288 288 289 290 291 293 297 299 298
271 271 270 271 271 269 269 270 267 265 263 261 261 262 264 266 267 267 269 269 269 271 273 274 274 275 274 281 284 286 287 286 288 290 292 293 294 295
269 265 267 267 267 266 264 265 264 264 262 261 260 261 263 263 263 265 264 264 264 266 271 272 272 273 272 274 281 285 286 286 286 289 290 291 292 293
260 257 259 261 260 260 260 261 261 260 260 260 259 259 259 260 260 262 262 262 261 263 264 267 270 271 274 275 276 284 285 286 288 287 287 288 289 290
252 250 255 257 257 258 257 257 258 258 258 258 257 257 257 258 258 259 260 260 259 262 263 265 266 267 269 272 279 282 284 284 286 285 286 286 285 286
248 249 252 255 255 256 256 256 255 257 257 256 256 256 256 256 257 257 258 259 258 261 262 264 264 265 264 263 269 277 277 284 285 283 285 284 285 285
247 247 247 249 254 254 254 254 254 255 255 255 255 255 255 255 255 255 256 256 257 260 261 262 263 264 263 263 265 270 278 278 283 283 283 283 282 286
246 246 247 247 249 251 252 252 252 252 253 253 253 253 254 254 254 254 255 256 257 260 259 261 263 266 266 268 267 271 280 283 284 282 281 276 275 275
245 245 247 246 245 247 250 250 251 251 251 252 252 252 253 253 253 253 254 255 256 260 261 262 264 264 264 264 264 268 273 276 282 284 285 280 275 272
247 245 247 248 246 247 247 247 249 250 250 251 251 252 252 251 252 253 254 255 258 260 261 261 262 263 263 264 265 267 271 275 273 275 274 281 279 280
Wind_Speed
9 10 8 9 8 7 7 7 6 9 10 9 9 10 12 9 9 13 12 16 17 22 24 25 28 25 26 29 31 31 32 33 31 30 32 33 31 30
8 10 8 7 7 6 8 8 6 6 8 8 10 14 15 13 15 16 16 16 18 16 21 24 25 24 28 29 29 30 31 33 32 30 29 34 33 32
9 9 10 9 7 8 8 7 7 9 12 10 11 12 15 16 17 17 16 15 12 17 19 22 23 25 27 27 28 29 31 32 32 30 29 31 33 33
10 10 11 9 11 10 8 11 9 9 11 18 13 12 13 15 15 18 15 14 16 17 19 21 21 25 27 26 28 28 29 29 28 29 30 32 34 34
9 10 10 11 10 10 9 9 8 9 10 11 13 10 11 12 15 12 14 15 13 21 26 29 24 23 25 25 25 25 26 27 28 28 29 28 29 32
9 10 10 11 12 11 10 11 11 10 10 10 12 11 11 12 11 14 16 12 14 15 18 21 25 26 24 24 26 24 23 25 28 30 30 29 29 31
8 9 8 11 16 18 10 12 12 11 10 11 11 12 12 13 14 13 15 15 15 14 13 13 14 16 18 22 18 22 23 26 28 28 28 29 31 31
8 9 8 10 13 19 20 21 16 13 13 12 11 15 16 17 15 14 15 17 19 9 11 17 13 16 15 15 27 26 24 26 27 28 29 30 30 30
9 9 9 8 11 12 16 18 15 20 18 14 15 15 19 17 18 19 17 17 18 17 15 20 13 17 15 16 28 32 30 29 28 27 27 29 30 29
8 8 8 9 13 15 13 13 12 12 12 11 14 15 15 18 16 17 19 20 16 14 12 19 13 16 15 15 28 28 29 29 28 28 28 29 29 28
8 7 8 10 22 24 14 12 12 10 13 21 22 25 25 24 22 13 12 14 15 15 14 17 14 16 14 15 15 27 31 35 30 29 28 28 27 26
7 8 14 18 22 22 12 11 12 14 15 15 14 15 16 16 22 12 11 14 14 14 7 14 18 16 20 15 10 9 10 19 25 28 27 27 25 13
7 7 8 22 21 20 19 11 15 18 16 11 11 10 11 11 11 11 12 11 14 17 15 15 15 17 18 21 16 13 10 11 11 13 24 26 25 22
7 7 9 19 18 18 13 21 23 17 9 9 9 10 11 11 12 13 15 14 13 19 19 17 14 16 19 22 19 12 9 10 10 12 10 16 28 31
7 12 17 16 16 12 18 20 15 8 9 9 10 10 11 12 15 15 15 18 17 17 13 16 15 18 15 20 17 15 14 6 11 12 10 10 11 11
9 7 11 11 12 11 9 10 9 9 9 9 10 11 10 11 12 12 15 15 17 16 15 18 18 17 18 16 19 16 14 12 6 10 10 9 10 12
5 3 4 5 6 6 6 7 7 8 8 9 10 11 12 12 12 12 13 14 14 17 18 17 21 19 17 19 19 15 14 13 11 11 10 11 10 11
4 2 3 5 6 6 7 7 7 8 8 9 9 10 12 12 13 12 12 12 15 15 17 17 18 20 20 22 18 17 12 12 11 9 11 12 11 10
1 2 2 5 6 6 6 7 8 8 10 8 9 10 11 12 14 12 12 12 14 15 16 16 15 16 18 19 20 26 18 13 9 8 9 9 11 11
1 2 3 3 5 6 6 7 7 8 8 8 9 10 10 10 12 12 12 14 14 15 16 16 14 14 17 20 22 27 36 18 10 8 9 4 1 9
3 3 3 3 3 4 6 6 7 8 8 9 8 9 10 10 12 12 12 17 18 14 17 16 17 27 17 18 15 15 15 15 18 10 1 3 2 2
3 3 4 4 4 3 5 5 7 8 8 8 8 9 9 9 11 13 12 14 14 14 16 15 18 16 16 16 19 22 18 8 7 16 11 10 6 7
4 4 4 5 4 4 4 4 6 8 8 8 8 9 9 10 10 11 12 13 14 14 16 17 16 15 16 16 20 18 25 13 3 3 4 8 4 6
Wind_Direction
28 19 10 16 357 353 355 359 349 322 312 317 336 356 334 318 293 285 277 266 251 251 251 252 252 251 248 252 252 253 257 256 251 247 251 246 238 232
32 16 17 3 5 353 11 3 353 328 293 347 324 330 333 326 327 323 305 283 271 262 257 256 257 253 253 251 251 253 254 254 249 243 246 247 241 233
25 16 16 6 14 17 4 351 353 349 320 325 322 326 326 326 325 324 320 319 299 280 268 257 257 257 257 255 254 254 253 254 250 243 239 243 241 234
22 22 21 16 15 5 4 8 347 337 330 319 325 325 329 325 322 324 321 315 313 313 305 290 282 267 261 259 257 256 257 258 254 248 242 240 239 230
24 22 20 15 11 5 2 356 353 335 323 315 314 319 320 324 322 321 316 318 316 320 327 320 300 280 269 266 265 261 258 258 259 256 250 243 240 231
31 24 20 25 9 6 8 358 348 339 331 324 322 322 327 330 321 322 319 316 318 312 309 301 304 298 285 278 269 263 256 255 257 258 256 247 241 233
29 26 22 35 15 17 358 352 345 342 334 331 325 325 333 334 330 324 311 310 311 307 311 303 318 311 306 304 279 268 261 262 261 257 256 249 243 235
22 20 15 21 16 5 360 356 353 347 337 331 328 326 325 325 320 318 310 312 312 286 320 303 303 298 294 286 285 272 266 263 261 258 254 248 243 235
22 13 10 12 0 356 354 354 354 349 344 341 332 324 316 319 314 309 305 298 292 297 300 293 303 293 292 286 282 278 270 261 258 259 256 250 244 235
18 13 6 8 354 354 357 351 352 345 341 337 321 313 311 317 316 311 316 299 287 285 276 284 294 288 292 292 290 284 279 269 262 254 251 248 241 232
7 7 358 4 356 356 355 348 341 331 332 331 326 323 324 329 333 328 333 328 315 308 315 290 292 288 296 296 291 279 269 266 261 253 248 243 234 222
353 360 5 2 356 354 353 352 336 339 341 334 330 325 325 327 334 337 328 321 314 308 355 317 306 310 300 293 286 301 285 280 274 266 257 243 226 210
351 357 357 350 351 352 358 344 342 342 337 332 322 319 326 328 329 328 322 313 310 294 314 318 302 299 284 292 285 281 265 277 271 264 256 245 226 204
352 349 346 345 348 351 356 348 349 347 333 327 326 331 331 329 328 321 316 309 295 288 305 297 289 302 306 292 286 281 264 255 260 260 248 241 224 206
344 348 343 345 351 353 350 351 351 341 335 333 332 327 326 323 320 320 317 314 305 300 306 307 305 308 303 299 282 285 282 243 248 255 241 222 213 201
7 355 344 350 358 356 351 350 345 339 337 332 328 323 324 325 327 327 322 323 318 314 319 321 316 315 308 302 299 287 287 276 249 246 243 233 218 207
38 359 338 351 348 347 347 337 335 335 335 333 326 327 327 326 327 328 320 320 318 317 323 327 323 316 305 297 296 283 285 278 267 250 229 227 217 208
40 341 332 339 338 335 337 333 329 329 331 327 325 323 322 323 322 322 318 317 316 315 320 326 326 326 329 320 328 301 274 272 274 240 229 228 223 212
63 301 297 319 322 325 327 325 322 323 322 318 320 316 317 316 321 319 320 316 316 312 319 321 325 326 325 313 308 301 308 290 274 243 227 220 225 208
243 253 270 279 314 314 313 312 311 312 314 313 312 308 309 311 315 315 318 315 316 309 319 320 323 324 316 306 303 295 291 266 272 256 237 224 0 142
274 294 269 275 269 288 298 300 298 302 303 303 298 301 305 308 309 310 310 311 313 309 317 318 316 313 303 301 300 309 306 261 248 266 237 123 120 118
265 262 274 273 268 264 290 289 295 297 295 294 295 297 299 303 303 306 307 308 306 309 311 309 315 317 317 314 308 306 307 295 271 257 246 168 168 181
268 258 268 269 258 263 266 274 284 287 286 288 291 294 299 299 298 295 297 298 298 310 314 316 316 318 312 312 307 304 304 294 315 341 12 32 87 123